Date,TemperatureHighF,TemperatureAvgF,TemperatureLowF,DewpointHighF,DewpointAvgF,DewpointLowF,HumidityHigh,HumidityAvg,HumidityLow,PressureMaxIn,PressureMinIn,WindSpeedMaxMPH,WindSpeedAvgMPH,GustSpeedMaxMPH,PrecipitationSumIn
2014-1-1,36.7,32.7,29.0,-99.9,-99.9,-99.9,0,0,100,0.00,40.00,22,5,25,0.00
2014-1-2,32.0,29.5,25.9,-99.9,-99.9,-99.9,0,0,100,0.00,40.00,6,0,7,0.00
2014-1-3,32.2,29.4,22.9,-99.9,-99.9,-99.9,0,0,100,0.00,40.00,7,0,9,0.00
2014-1-4,34.5,27.3,21.1,-99.9,-99.9,-99.9,0,0,100,0.00,40.00,24,3,24,0.00
2014-1-8,29.7,27.3,23.1,-99.9,-99.9,-99.9,0,0,100,0.00,40.00,4,0,5,0.00
2014-1-9,33.0,29.1,25.2,-99.9,-99.9,-99.9,0,0,100,0.00,40.00,0,0,1,0.00
2014-1-10,29.5,26.8,24.7,-99.9,-99.9,-99.9,0,0,100,0.00,40.00,0,0,0,0.00
2014-1-11,25.7,22.6,19.5,-99.9,-99.9,-99.9,0,0,100,0.00,40.00,0,0,0,0.00
2014-1-12,20.8,16.7,13.8,-99.9,-99.9,-99.9,0,0,100,0.00,40.00,10,0,10,0.00
2014-1-13,22.1,19.3,16.3,-99.9,-99.9,-99.9,0,0,100,0.00,40.00,5,0,6,0.00
2014-1-14,34.7,24.7,13.2,-99.9,-99.9,-99.9,0,0,100,0.00,40.00,15,2,19,0.00
2014-1-15,35.4,29.7,20.5,-99.9,-99.9,-99.9,0,0,100,0.00,40.00,15,2,15,0.00
2014-1-16,36.7,31.7,28.5,-99.9,-99.9,-99.9,0,0,100,0.00,40.00,7,0,8,0.00
2014-1-17,44.4,36.9,26.0,-99.9,-99.9,-99.9,0,0,100,0.00,40.00,28,4,32,0.00
2014-1-18,40.9,36.6,32.2,-99.9,-99.9,-99.9,0,0,100,0.00,40.00,16,2,16,0.00
2014-1-19,38.4,33.7,29.2,-99.9,-99.9,-99.9,0,0,100,0.00,40.00,22,2,22,0.00
2014-1-20,42.5,39.3,35.9,-99.9,-99.9,-99.9,0,0,100,0.00,40.00,21,4,21,0.00
2014-1-24,36.9,35.1,32.7,-99.9,-99.9,-99.9,0,0,100,0.00,40.00,2,0,5,0.00
2014-1-25,37.4,31.2,26.8,-99.9,-99.9,-99.9,0,0,100,0.00,40.00,3,0,3,0.00
2014-1-26,50.2,39.7,27.7,-99.9,-99.9,-99.9,0,0,100,0.00,40.00,18,2,18,0.00
2014-1-27,50.5,34.9,28.5,-99.9,-99.9,-99.9,0,0,100,0.00,40.00,15,1,15,0.00
2014-1-28,45.5,34.3,26.4,-99.9,-99.9,-99.9,0,0,100,0.00,40.00,6,0,6,0.00
2014-1-29,32.5,26.1,20.8,-99.9,-99.9,-99.9,0,0,100,0.00,40.00,5,0,6,0.00
2014-1-30,26.7,20.3,15.4,-99.9,-99.9,-99.9,0,0,100,0.00,40.00,4,0,4,0.00
2014-1-31,24.2,15.6,11.5,-99.9,-99.9,-99.9,0,0,100,0.00,40.00,3,0,3,0.00